QPF
0.00 0.00 0.00 0.00 0.00 0.00 0.00 0.00 0.00 0.00 0.00 0.00 0.00 0.00 0.00 0.00 0.00 0.00 0.00 0.00 0.00 0.00 0.00 0.00 0.00 0.00 0.00 0.00 0.00 0.00 0.00 0.00 0.00 0.00 0.00 0.00 0.00 0.00 0.00 0.00 0.00 0.00 0.00
0.00 0.00 0.00 0.00 0.00 0.00 0.00 0.00 0.00 0.00 0.00 0.00 0.00 0.00 0.00 0.00 0.00 0.00 0.00 0.00 0.00 0.00 0.00 0.00 0.00 0.00 0.00 0.00 0.00 0.00 0.00 0.00 0.00 0.00 0.00 0.00 0.00 0.00 0.00 0.00 0.00 0.00 0.00
0.00 0.00 0.00 0.00 0.00 0.00 0.00 0.00 0.00 0.00 0.00 0.00 0.00 0.00 0.00 0.00 0.00 0.00 0.00 0.00 0.00 0.00 0.00 0.00 0.00 0.00 0.00 0.00 0.00 0.00 0.00 0.00 0.00 0.00 0.00 0.00 0.00 0.00 0.00 0.00 0.00 0.00 0.00
0.00 0.00 0.00 0.00 0.00 0.00 0.00 0.00 0.00 0.00 0.00 0.00 0.00 0.00 0.00 0.00 0.00 0.00 0.00 0.00 0.00 0.00 0.00 0.00 0.00 0.00 0.00 0.00 0.00 0.00 0.00 0.00 0.00 0.00 0.00 0.01 0.01 0.01 0.01 0.00 0.00 0.00 0.00
0.00 0.00 0.00 0.00 0.00 0.00 0.00 0.00 0.00 0.00 0.00 0.00 0.00 0.00 0.00 0.00 0.00 0.00 0.00 0.00 0.00 0.00 0.00 0.00 0.00 0.00 0.00 0.00 0.00 0.00 0.00 0.00 0.00 0.00 0.00 0.00 0.00 0.00 0.01 0.00 0.00 0.00 0.00
0.00 0.00 0.00 0.00 0.00 0.00 0.00 0.00 0.00 0.00 0.00 0.00 0.00 0.00 0.00 0.00 0.00 0.00 0.00 0.00 0.00 0.00 0.00 0.00 0.00 0.00 0.00 0.00 0.00 0.00 0.00 0.00 0.00 0.00 0.00 0.01 0.01 0.00 0.02 0.01 0.00 0.00 0.00
0.00 0.00 0.00 0.00 0.00 0.00 0.00 0.00 0.00 0.00 0.00 0.00 0.00 0.00 0.00 0.00 0.00 0.00 0.00 0.00 0.00 0.00 0.00 0.00 0.00 0.00 0.00 0.00 0.00 0.00 0.00 0.00 0.00 0.00 0.00 0.00 0.00 0.01 0.01 0.01 0.00 0.00 0.00
0.00 0.00 0.00 0.00 0.00 0.00 0.00 0.00 0.00 0.00 0.00 0.00 0.00 0.00 0.00 0.00 0.00 0.00 0.00 0.00 0.00 0.00 0.00 0.00 0.00 0.00 0.00 0.00 0.00 0.00 0.00 0.00 0.00 0.00 0.00 0.00 0.00 0.00 0.00 0.02 0.02 0.01 0.00
0.00 0.00 0.00 0.00 0.00 0.00 0.00 0.00 0.00 0.00 0.00 0.00 0.00 0.00 0.00 0.00 0.00 0.00 0.00 0.00 0.00 0.00 0.00 0.00 0.00 0.00 0.00 0.00 0.00 0.00 0.00 0.00 0.00 0.00 0.00 0.00 0.00 0.00 0.00 0.01 0.03 0.03 0.01
0.00 0.00 0.00 0.00 0.00 0.00 0.00 0.00 0.00 0.00 0.00 0.00 0.00 0.00 0.00 0.00 0.00 0.00 0.00 0.00 0.00 0.00 0.00 0.00 0.00 0.00 0.00 0.00 0.00 0.00 0.00 0.00 0.00 0.00 0.00 0.00 0.00 0.00 0.00 0.00 0.00 0.01 0.02
0.00 0.00 0.00 0.00 0.00 0.00 0.00 0.00 0.00 0.00 0.00 0.00 0.00 0.00 0.00 0.00 0.00 0.00 0.00 0.00 0.00 0.00 0.00 0.00 0.00 0.00 0.00 0.00 0.00 0.00 0.00 0.00 0.00 0.00 0.00 0.00 0.00 0.00 0.00 0.00 0.00 0.00 0.02
0.00 0.00 0.00 0.00 0.00 0.00 0.00 0.00 0.00 0.00 0.00 0.00 0.00 0.00 0.00 0.00 0.00 0.00 0.00 0.00 0.00 0.00 0.00 0.00 0.00 0.00 0.00 0.00 0.00 0.00 0.00 0.00 0.00 0.00 0.00 0.00 0.00 0.00 0.00 0.00 0.00 0.00 0.00
0.00 0.00 0.00 0.00 0.00 0.00 0.00 0.00 0.00 0.00 0.00 0.00 0.00 0.00 0.00 0.00 0.00 0.00 0.00 0.00 0.00 0.00 0.00 0.00 0.00 0.00 0.00 0.00 0.00 0.00 0.00 0.00 0.00 0.00 0.00 0.00 0.00 0.00 0.00 0.01 0.00 0.00 0.00
0.00 0.00 0.00 0.00 0.00 0.00 0.00 0.00 0.00 0.00 0.00 0.00 0.00 0.00 0.00 0.00 0.00 0.00 0.00 0.00 0.00 0.00 0.00 0.00 0.00 0.00 0.00 0.00 0.01 0.01 0.00 0.00 0.00 0.00 0.00 0.00 0.00 0.03 0.04 0.01 0.01 0.01 0.00
0.00 0.00 0.00 0.00 0.00 0.00 0.00 0.00 0.00 0.00 0.00 0.00 0.00 0.00 0.00 0.00 0.00 0.00 0.00 0.00 0.00 0.00 0.00 0.00 0.00 0.00 0.00 0.00 0.02 0.01 0.00 0.00 0.00 0.00 0.00 0.00 0.01 0.03 0.02 0.04 0.03 0.01 0.01
0.00 0.00 0.00 0.00 0.02 0.02 0.00 0.00 0.01 0.00 0.00 0.00 0.00 0.00 0.00 0.00 0.00 0.00 0.00 0.00 0.00 0.00 0.00 0.00 0.00 0.00 0.00 0.00 0.01 0.01 0.00 0.00 0.00 0.00 0.00 0.00 0.00 0.01 0.01 0.02 0.02 0.02 0.01
0.00 0.00 0.02 0.05 0.05 0.01 0.00 0.01 0.00 0.00 0.00 0.00 0.00 0.00 0.00 0.00 0.00 0.00 0.00 0.00 0.00 0.00 0.00 0.00 0.00 0.00 0.00 0.00 0.01 0.01 0.00 0.00 0.00 0.00 0.01 0.01 0.00 0.01 0.02 0.02 0.01 0.01 0.00
0.00 0.02 0.05 0.04 0.01 0.00 0.00 0.00 0.00 0.00 0.00 0.00 0.00 0.00 0.00 0.00 0.00 0.00 0.00 0.00 0.00 0.00 0.00 0.00 0.00 0.00 0.00 0.00 0.01 0.00 0.00 0.00 0.00 0.00 0.01 0.02 0.01 0.02 0.04 0.01 0.01 0.01 0.01
0.00 0.02 0.00 0.01 0.00 0.00 0.00 0.00 0.00 0.00 0.00 0.00 0.00 0.00 0.00 0.00 0.00 0.00 0.00 0.00 0.00 0.00 0.00 0.00 0.00 0.00 0.00 0.00 0.01 0.00 0.00 0.00 0.00 0.00 0.01 0.03 0.03 0.04 0.03 0.01 0.01 0.01 0.01
0.00 0.00 0.01 0.00 0.00 0.00 0.00 0.00 0.00 0.00 0.00 0.00 0.00 0.00 0.00 0.00 0.00 0.00 0.00 0.00 0.00 0.00 0.00 0.00 0.00 0.00 0.00 0.00 0.01 0.01 0.00 0.00 0.00 0.00 0.00 0.01 0.04 0.04 0.03 0.02 0.02 0.01 0.00
0.00 0.00 0.00 0.00 0.00 0.00 0.00 0.00 0.00 0.00 0.00 0.00 0.00 0.00 0.00 0.00 0.00 0.00 0.00 0.00 0.00 0.00 0.00 0.00 0.00 0.00 0.00 0.00 0.00 0.00 0.00 0.01 0.00 0.00 0.00 0.01 0.03 0.03 0.03 0.04 0.04 0.05 0.05
0.00 0.00 0.00 0.00 0.00 0.00 0.00 0.00 0.00 0.00 0.00 0.00 0.00 0.00 0.00 0.00 0.00 0.00 0.00 0.00 0.00 0.00 0.00 0.00 0.00 0.00 0.00 0.00 0.00 0.00 0.00 0.00 0.01 0.01 0.02 0.02 0.03 0.03 0.04 0.04 0.05 0.05 0.05
0.00 0.00 0.00 0.00 0.00 0.00 0.00 0.00 0.00 0.00 0.00 0.00 0.00 0.00 0.00 0.00 0.00 0.00 0.00 0.00 0.00 0.00 0.00 0.00 0.00 0.00 0.00 0.00 0.00 0.00 0.00 0.00 0.01 0.02 0.03 0.02 0.01 0.03 0.03 0.05 0.03 0.02 0.03
0.00 0.00 0.00 0.00 0.00 0.00 0.00 0.00 0.00 0.00 0.00 0.00 0.00 0.00 0.00 0.00 0.00 0.00 0.00 0.00 0.00 0.00 0.00 0.00 0.00 0.00 0.00 0.00 0.00 0.00 0.00 0.00 0.00 0.02 0.01 0.01 0.02 0.03 0.03 0.03 0.02 0.03 0.05
0.00 0.00 0.00 0.00 0.00 0.00 0.00 0.00 0.00 0.00 0.00 0.00 0.00 0.00 0.00 0.00 0.00 0.00 0.00 0.00 0.00 0.00 0.00 0.00 0.00 0.00 0.00 0.00 0.00 0.00 0.00 0.00 0.02 0.03 0.00 0.00 0.00 0.00 0.01 0.02 0.02 0.02 0.01
0.00 0.00 0.00 0.00 0.00 0.00 0.00 0.00 0.00 0.00 0.00 0.00 0.00 0.00 0.00 0.00 0.00 0.00 0.00 0.00 0.00 0.00 0.00 0.00 0.00 0.00 0.00 0.00 0.00 0.00 0.00 0.00 0.00 0.00 0.00 0.01 0.01 0.01 0.02 0.02 0.01 0.01 0.01
MSLP
1020.21 1020.92 1021.71 1022.52 1023.41 1024.32 1024.90 1025.31 1025.75 1026.22 1026.41 1026.69 1026.98 1027.36 1027.78 1027.94 1027.85 1027.77 1027.67 1027.75 1027.73 1027.78 1027.73 1027.69 1027.46 1027.49 1027.45 1027.32 1027.13 1026.90 1026.37 1025.93 1025.46 1024.85 1023.74 1023.12 1022.80 1022.71 1022.37 1022.15 1021.87 1021.64 1021.21
1020.57 1021.36 1022.13 1022.93 1023.82 1024.70 1025.34 1025.84 1026.25 1026.56 1026.66 1026.81 1027.22 1027.30 1027.73 1028.16 1028.27 1028.35 1028.21 1028.16 1028.02 1027.98 1027.80 1027.91 1027.95 1027.83 1027.63 1027.51 1027.34 1027.22 1026.92 1026.29 1025.83 1025.60 1024.88 1024.07 1023.13 1022.65 1022.28 1022.15 1022.06 1021.83 1021.39
1020.02 1021.49 1022.54 1023.48 1024.39 1025.26 1025.93 1026.40 1026.77 1027.05 1027.13 1027.22 1027.29 1027.60 1027.88 1028.28 1028.58 1028.77 1028.73 1028.62 1028.42 1028.22 1028.26 1028.27 1028.09 1028.02 1027.92 1027.81 1027.58 1027.33 1027.04 1026.70 1026.07 1025.78 1025.48 1024.87 1024.38 1023.58 1022.39 1022.17 1022.08 1021.84 1021.40
1020.32 1021.46 1022.77 1024.06 1025.03 1025.96 1026.42 1026.82 1027.28 1027.49 1027.53 1027.53 1027.72 1028.11 1028.70 1028.88 1029.13 1029.13 1029.03 1028.83 1028.62 1028.60 1028.49 1028.46 1028.27 1028.17 1028.03 1027.90 1027.75 1027.27 1027.02 1026.78 1026.44 1025.64 1025.33 1025.29 1024.94 1024.30 1023.02 1022.28 1021.96 1021.81 1021.37
1020.71 1022.20 1023.62 1024.76 1025.80 1026.46 1026.99 1027.43 1027.75 1028.02 1028.25 1028.30 1028.41 1028.75 1029.28 1029.45 1029.47 1029.39 1029.19 1029.03 1028.90 1028.68 1028.51 1028.46 1028.45 1028.28 1028.28 1028.13 1027.89 1027.36 1026.99 1026.76 1026.48 1026.06 1025.58 1025.06 1024.68 1024.42 1024.06 1022.54 1021.87 1021.63 1021.24
1022.19 1023.38 1024.48 1025.44 1026.41 1027.18 1027.58 1027.80 1028.12 1028.55 1028.56 1028.68 1028.91 1029.10 1029.17 1029.69 1029.64 1029.60 1029.55 1029.34 1029.14 1028.79 1028.64 1028.50 1028.46 1028.32 1028.39 1028.16 1027.71 1027.22 1026.89 1026.61 1026.32 1025.96 1025.64 1025.26 1024.54 1024.06 1023.84 1023.10 1022.34 1021.72 1020.84
1023.24 1024.31 1025.24 1026.15 1027.04 1027.65 1027.94 1028.10 1028.32 1028.71 1028.94 1029.04 1029.39 1029.49 1029.45 1029.73 1029.78 1029.71 1029.60 1029.42 1029.41 1029.22 1028.91 1028.72 1028.57 1028.50 1028.38 1028.00 1027.48 1027.12 1026.74 1026.42 1026.08 1025.74 1025.50 1025.13 1024.48 1024.00 1023.65 1023.14 1022.33 1021.63 1020.84
1024.28 1024.98 1025.86 1026.76 1027.46 1027.93 1028.18 1028.59 1028.86 1029.18 1029.25 1029.40 1029.62 1029.79 1029.86 1029.88 1029.87 1029.81 1029.72 1029.60 1029.50 1029.18 1028.84 1028.71 1028.55 1028.42 1028.18 1027.75 1027.34 1027.02 1026.58 1026.04 1025.72 1025.48 1025.29 1024.86 1024.17 1023.82 1023.53 1023.06 1022.44 1021.32 1020.75
1024.88 1025.64 1026.51 1027.20 1027.95 1028.61 1028.96 1029.03 1029.25 1029.54 1029.70 1029.87 1029.97 1030.10 1030.04 1030.04 1029.95 1029.79 1029.70 1029.58 1029.32 1028.91 1028.88 1028.85 1028.67 1028.36 1028.10 1027.70 1027.26 1026.92 1026.28 1025.85 1025.49 1025.24 1024.91 1024.52 1023.88 1023.51 1023.16 1022.82 1022.51 1022.02 1020.95
1025.68 1026.18 1026.90 1027.58 1027.73 1028.18 1029.17 1029.70 1029.67 1029.89 1030.20 1030.38 1030.34 1030.41 1030.39 1030.28 1030.14 1029.97 1029.76 1029.54 1029.32 1029.02 1028.90 1028.71 1028.63 1028.35 1028.06 1027.64 1027.18 1026.66 1026.04 1025.69 1025.32 1024.99 1024.63 1024.16 1023.67 1023.17 1022.85 1022.60 1022.29 1022.02 1021.58
1026.56 1027.24 1027.69 1027.92 1028.68 1028.98 1029.33 1029.90 1030.13 1030.35 1030.50 1030.59 1030.65 1030.71 1030.64 1030.42 1030.22 1030.14 1029.90 1029.69 1029.38 1029.02 1028.79 1028.64 1028.45 1028.39 1028.05 1027.53 1026.98 1026.49 1025.93 1025.60 1025.16 1024.75 1024.28 1023.83 1023.35 1022.88 1022.52 1022.20 1021.89 1021.56 1021.40
1026.42 1026.92 1027.83 1028.53 1029.22 1029.63 1029.83 1030.25 1030.47 1030.59 1030.75 1030.80 1030.88 1030.96 1030.90 1030.68 1030.59 1030.42 1030.04 1029.58 1029.30 1029.04 1028.84 1028.77 1028.49 1028.34 1028.06 1027.42 1026.82 1026.27 1025.78 1025.42 1024.97 1024.50 1023.97 1023.57 1023.03 1022.54 1022.08 1021.76 1021.40 1021.08 1020.86
1027.22 1027.95 1028.59 1029.07 1029.40 1029.77 1030.08 1030.42 1030.70 1030.94 1030.98 1031.04 1031.11 1031.21 1031.11 1031.09 1030.90 1030.63 1030.18 1029.65 1029.46 1029.21 1029.01 1028.95 1028.69 1028.43 1028.08 1027.32 1026.62 1025.98 1025.54 1025.20 1024.80 1024.36 1023.78 1023.22 1022.71 1022.13 1021.56 1021.24 1020.81 1020.44 1020.16
1027.40 1027.95 1028.52 1029.00 1029.40 1029.79 1030.35 1030.76 1031.06 1031.20 1031.22 1031.28 1031.46 1031.49 1031.33 1031.30 1031.18 1030.68 1030.45 1029.96 1029.64 1029.51 1029.41 1029.25 1028.95 1028.56 1028.15 1027.26 1026.36 1025.69 1025.33 1024.96 1024.52 1024.02 1023.44 1022.85 1022.30 1021.64 1020.97 1020.61 1020.05 1019.67 1019.64
1027.66 1028.24 1028.89 1029.32 1029.80 1030.25 1030.62 1030.86 1031.25 1031.37 1031.43 1031.62 1031.85 1031.85 1031.55 1031.37 1031.54 1031.13 1030.69 1030.43 1030.11 1030.02 1029.91 1029.61 1029.16 1028.76 1028.21 1027.24 1026.22 1025.47 1025.16 1024.68 1024.16 1023.61 1023.09 1022.49 1021.80 1021.13 1020.66 1020.01 1019.46 1019.27 1019.07
1027.67 1028.33 1028.97 1029.50 1030.16 1030.66 1030.78 1031.10 1031.40 1031.51 1031.60 1031.78 1031.93 1032.19 1032.02 1031.86 1032.07 1031.68 1031.30 1031.06 1030.86 1030.65 1030.41 1029.93 1029.42 1028.96 1028.42 1027.29 1026.17 1025.34 1025.04 1024.56 1024.04 1023.45 1022.88 1022.21 1021.55 1020.94 1020.32 1019.57 1019.08 1018.74 1018.47
1027.51 1028.08 1028.59 1029.31 1029.94 1030.69 1030.90 1031.35 1031.51 1031.72 1031.94 1032.11 1032.23 1032.44 1032.50 1032.54 1032.44 1032.34 1031.89 1031.64 1031.43 1031.16 1030.73 1030.16 1029.64 1029.15 1028.60 1027.32 1026.22 1025.34 1025.06 1024.52 1023.93 1023.34 1022.73 1022.07 1021.43 1020.70 1019.94 1019.20 1018.69 1018.28 1017.94
1027.45 1028.01 1028.76 1029.49 1030.17 1030.78 1031.17 1031.47 1031.77 1032.09 1032.34 1032.53 1032.69 1032.82 1032.92 1032.92 1032.71 1032.79 1032.61 1032.28 1031.86 1031.56 1030.98 1030.34 1029.84 1029.31 1028.52 1027.37 1026.24 1025.43 1025.03 1024.41 1023.90 1023.32 1022.75 1022.06 1021.30 1020.42 1019.63 1018.94 1018.39 1017.89 1017.46
1027.50 1028.10 1028.81 1029.66 1030.24 1030.69 1031.18 1031.62 1032.14 1032.56 1032.85 1033.18 1033.24 1033.45 1033.32 1033.30 1033.40 1033.45 1033.24 1032.84 1032.30 1031.83 1031.17 1030.55 1030.02 1029.43 1028.64 1027.51 1026.42 1025.61 1025.01 1024.38 1023.87 1023.26 1022.67 1021.98 1021.21 1020.26 1019.50 1018.84 1018.26 1017.59 1017.04
1027.91 1028.62 1029.42 1030.02 1030.62 1031.15 1031.60 1032.15 1032.67 1033.02 1033.38 1033.57 1033.83 1033.96 1033.63 1033.65 1033.88 1033.89 1033.70 1033.32 1032.79 1032.21 1031.46 1030.79 1030.22 1029.50 1028.75 1027.76 1026.72 1025.91 1025.22 1024.58 1023.96 1023.25 1022.63 1021.96 1021.20 1020.29 1019.53 1018.88 1018.26 1017.55 1016.93
1028.64 1029.32 1029.88 1030.44 1031.07 1031.55 1032.05 1032.70 1033.20 1033.56 1033.77 1033.93 1034.22 1034.16 1034.02 1033.96 1034.16 1034.18 1034.00 1033.61 1033.06 1032.47 1031.67 1031.00 1030.35 1029.62 1028.93 1028.10 1027.00 1026.20 1025.55 1025.06 1024.39 1023.68 1022.87 1022.10 1021.24 1020.43 1019.74 1019.05 1018.37 1017.73 1016.97
1029.35 1030.00 1030.62 1031.28 1031.68 1032.16 1032.61 1033.27 1033.59 1033.75 1033.96 1034.25 1034.36 1034.28 1034.25 1034.10 1034.25 1034.31 1034.13 1033.78 1033.35 1032.70 1031.84 1031.09 1030.48 1029.81 1029.22 1028.50 1027.54 1026.67 1026.08 1025.48 1024.98 1024.26 1023.43 1022.56 1021.56 1020.76 1020.05 1019.33 1018.61 1017.77 1017.08
1030.03 1030.69 1031.31 1031.92 1032.44 1032.70 1033.04 1033.57 1033.91 1034.04 1034.24 1034.41 1034.50 1034.47 1034.46 1034.41 1034.34 1034.36 1034.23 1034.00 1033.67 1033.13 1032.34 1031.58 1031.02 1030.27 1029.58 1028.91 1028.02 1027.32 1026.53 1025.88 1025.40 1024.79 1023.94 1022.97 1022.04 1021.27 1020.48 1019.79 1019.04 1018.26 1017.66
1030.75 1031.31 1031.94 1032.66 1033.10 1033.29 1033.58 1033.83 1034.02 1034.18 1034.36 1034.58 1034.62 1034.64 1034.59 1034.57 1034.54 1034.47 1034.33 1034.18 1034.00 1033.52 1032.81 1032.14 1031.64 1031.08 1030.22 1029.44 1028.63 1027.86 1027.20 1026.52 1025.94 1025.26 1024.53 1023.79 1022.81 1022.02 1021.32 1020.43 1019.75 1019.14 1018.52
1031.36 1031.95 1032.62 1033.19 1033.73 1033.87 1034.10 1034.18 1034.20 1034.26 1034.39 1034.55 1034.70 1034.76 1034.76 1034.80 1034.72 1034.59 1034.35 1034.26 1034.11 1033.68 1032.99 1032.60 1032.20 1031.64 1030.78 1030.13 1029.32 1028.54 1027.94 1027.32 1026.85 1026.01 1025.23 1024.38 1023.58 1022.85 1022.16 1021.48 1020.82 1020.05 1019.30
1031.96 1032.63 1033.33 1033.91 1034.35 1034.42 1034.41 1034.33 1034.16 1034.19 1034.40 1034.67 1034.85 1034.96 1035.01 1035.01 1034.94 1034.82 1034.57 1034.18 1033.89 1033.50 1033.14 1032.75 1032.34 1032.46 1031.44 1030.67 1029.86 1029.17 1028.72 1028.02 1027.39 1026.81 1026.42 1025.83 1025.16 1024.44 1023.72 1022.95 1022.06 1021.21 1020.32
Thickness
5654 5645 5634 5623 5609 5595 5584 5574 5565 5555 5547 5538 5528 5517 5506 5495 5487 5476 5465 5455 5445 5435 5426 5417 5409 5398 5388 5378 5370 5361 5354 5345 5338 5330 5320 5316 5310 5304 5303 5301 5300 5300 5303
5644 5635 5624 5614 5601 5585 5573 5563 5553 5543 5536 5527 5516 5507 5495 5483 5472 5461 5451 5441 5433 5422 5413 5404 5394 5384 5373 5363 5355 5345 5336 5326 5318 5309 5303 5300 5296 5293 5291 5289 5286 5288 5291
5643 5629 5617 5602 5589 5574 5561 5551 5541 5531 5523 5515 5506 5494 5484 5472 5461 5449 5438 5429 5419 5410 5400 5390 5382 5371 5360 5351 5341 5330 5320 5309 5298 5289 5283 5280 5280 5280 5279 5278 5272 5274 5279
5637 5624 5607 5590 5576 5560 5550 5540 5530 5521 5512 5505 5495 5483 5469 5457 5446 5436 5427 5417 5408 5398 5388 5378 5369 5359 5349 5338 5327 5317 5305 5293 5284 5280 5273 5265 5261 5260 5269 5268 5262 5261 5266
5628 5610 5593 5577 5561 5550 5538 5528 5519 5509 5500 5491 5482 5468 5454 5444 5434 5425 5417 5408 5398 5389 5380 5368 5357 5348 5336 5325 5315 5302 5291 5282 5273 5267 5263 5258 5254 5250 5250 5259 5257 5256 5259
5606 5591 5576 5563 5548 5536 5526 5518 5509 5497 5490 5480 5469 5458 5447 5434 5424 5414 5404 5396 5388 5380 5370 5359 5349 5338 5326 5315 5302 5292 5283 5272 5264 5259 5254 5251 5252 5250 5246 5248 5249 5249 5254
5588 5575 5561 5550 5537 5524 5516 5508 5499 5487 5477 5467 5456 5447 5437 5425 5416 5406 5396 5387 5376 5367 5358 5349 5339 5329 5317 5304 5294 5284 5275 5267 5261 5256 5250 5247 5247 5244 5242 5242 5244 5245 5249
5573 5562 5551 5537 5524 5516 5507 5496 5486 5474 5465 5456 5447 5437 5427 5417 5407 5398 5387 5378 5369 5359 5351 5341 5332 5321 5308 5297 5287 5276 5271 5266 5260 5253 5248 5245 5244 5240 5236 5236 5236 5242 5244
5562 5551 5536 5524 5512 5500 5491 5484 5474 5464 5455 5446 5437 5427 5418 5408 5399 5389 5380 5371 5362 5352 5342 5332 5323 5312 5299 5289 5280 5272 5268 5263 5257 5251 5245 5242 5240 5236 5233 5231 5230 5230 5235
5548 5537 5523 5512 5506 5497 5481 5470 5463 5454 5444 5434 5426 5416 5408 5398 5389 5380 5372 5363 5354 5346 5336 5326 5315 5303 5292 5282 5275 5269 5265 5259 5254 5248 5242 5239 5236 5233 5230 5227 5225 5224 5225
5531 5518 5510 5503 5491 5481 5472 5461 5453 5443 5434 5424 5415 5406 5397 5389 5380 5370 5362 5355 5347 5340 5331 5321 5311 5295 5285 5277 5271 5267 5262 5256 5250 5245 5241 5237 5232 5230 5226 5224 5223 5222 5221
5524 5515 5502 5491 5479 5470 5462 5453 5442 5434 5424 5415 5406 5396 5387 5378 5369 5361 5355 5349 5342 5334 5325 5314 5304 5290 5279 5274 5269 5264 5259 5252 5247 5243 5238 5232 5229 5226 5225 5223 5221 5220 5220
5513 5500 5489 5479 5469 5460 5453 5443 5433 5422 5414 5405 5397 5387 5377 5367 5359 5352 5347 5343 5336 5328 5319 5307 5297 5285 5276 5272 5267 5262 5256 5250 5244 5239 5235 5231 5227 5224 5223 5221 5220 5220 5221
5504 5491 5480 5470 5461 5452 5442 5432 5421 5412 5404 5397 5387 5376 5367 5359 5350 5346 5340 5336 5329 5321 5311 5300 5290 5281 5272 5270 5266 5262 5255 5248 5242 5237 5233 5229 5225 5223 5222 5220 5221 5221 5219
5496 5484 5471 5461 5452 5443 5433 5424 5413 5403 5396 5387 5376 5366 5360 5353 5342 5338 5334 5328 5322 5314 5304 5293 5285 5277 5270 5267 5264 5260 5253 5247 5241 5236 5231 5227 5223 5223 5220 5220 5220 5218 5218
5491 5477 5467 5458 5444 5432 5425 5415 5404 5397 5389 5379 5368 5357 5350 5344 5334 5329 5326 5320 5313 5305 5297 5289 5281 5274 5266 5264 5261 5257 5250 5243 5237 5233 5228 5223 5220 5219 5218 5219 5218 5217 5216
5486 5476 5468 5453 5441 5427 5419 5407 5399 5390 5380 5370 5361 5351 5342 5336 5328 5320 5318 5313 5306 5298 5291 5284 5277 5271 5264 5261 5258 5254 5246 5240 5234 5230 5225 5221 5219 5218 5218 5218 5216 5215 5216
5485 5475 5461 5447 5435 5421 5411 5402 5392 5381 5372 5362 5352 5343 5336 5329 5323 5314 5309 5305 5300 5293 5287 5282 5275 5269 5264 5260 5256 5251 5244 5238 5233 5228 5223 5220 5219 5219 5218 5217 5215 5214 5215
5482 5468 5455 5440 5428 5418 5406 5395 5384 5372 5362 5351 5343 5334 5330 5322 5315 5306 5302 5298 5295 5290 5286 5280 5272 5267 5263 5259 5255 5250 5244 5239 5233 5229 5224 5222 5220 5220 5218 5216 5214 5214 5217
5470 5457 5444 5433 5421 5409 5398 5386 5374 5363 5352 5344 5335 5327 5323 5317 5308 5301 5296 5293 5290 5287 5283 5277 5270 5266 5261 5259 5255 5249 5244 5238 5234 5230 5226 5223 5221 5221 5219 5217 5215 5216 5220
5460 5448 5437 5425 5413 5402 5390 5377 5365 5354 5345 5337 5328 5321 5317 5311 5303 5296 5291 5288 5286 5282 5278 5274 5268 5265 5261 5257 5253 5249 5244 5238 5233 5229 5227 5224 5223 5223 5220 5218 5218 5219 5224
5449 5437 5425 5413 5404 5392 5380 5367 5357 5349 5340 5331 5324 5318 5312 5307 5300 5293 5288 5285 5281 5278 5276 5273 5267 5263 5260 5256 5252 5248 5243 5238 5232 5228 5227 5225 5226 5225 5223 5222 5222 5226 5232
5439 5428 5416 5404 5393 5383 5373 5361 5352 5343 5335 5326 5318 5314 5308 5303 5296 5290 5286 5282 5277 5274 5273 5271 5265 5261 5259 5255 5251 5248 5243 5239 5233 5229 5227 5228 5229 5228 5227 5227 5229 5233 5239
5429 5419 5406 5394 5384 5375 5365 5356 5347 5338 5329 5320 5315 5309 5305 5300 5294 5289 5284 5279 5274 5271 5270 5267 5262 5257 5257 5256 5255 5249 5243 5239 5234 5232 5230 5230 5231 5232 5232 5234 5236 5239 5247
5421 5410 5399 5388 5376 5367 5358 5350 5342 5335 5327 5319 5312 5307 5302 5296 5292 5287 5282 5278 5274 5270 5268 5264 5261 5257 5256 5254 5252 5248 5243 5237 5232 5231 5232 5233 5234 5235 5236 5238 5241 5248 5258
5414 5402 5390 5378 5366 5360 5352 5346 5339 5331 5323 5315 5308 5302 5297 5293 5289 5285 5281 5277 5273 5269 5266 5263 5261 5255 5251 5250 5250 5247 5242 5237 5233 5233 5232 5231 5231 5233 5236 5239 5246 5255 5265